COSMOS 2251 DEB

Satellite information

Favourite Embed

Satellite Type and Status

DEBRISIN ORBIT

Key statistics

Satellite COSMOS 2251 DEB at a glance.

Uptime

11764

Days in orbit

Revolutions

≈ 14.5

Per day

Orbit

LEO

Low Earth Orbit

Inclination

74.2

Latest

Satellite identification and parameters

Extended collection of information and parameters for COSMOS 2251 DEB.

Object identification

Identified? True

Debris? True

Object name: COSMOS 2251 DEB

International designator: 1993-036ACW

Object number (NORAD): 34883

Object ID (CCSDS): 34883

Country: COMMONWEALTH OF INDEPENDENT STATES (CIS)

Current information (Y/N): Y

RCS size: SMALL

Orbital parameters

Period: 99.514 minutes

Inclination: 74.2 deg

SMA: 7113.498 km

Apoapsis: 801.969 km

Periapsis: 668.757 km

RAAN: 257.0974 deg

Eccentricy: 0.00936333

Argument of periapsis: 108.2989 deg

Mean anomaly: 252.8385 deg

Mean motion: 14.47031328 rev/day

Mean motion (dot): 0.00014198 rev/day2

B* drag term: 0.0036924101 1/REarth

Two-line elements (TLE)

Creation date: Aug. 30, 2025, 11:24 a.m.

Reference frame: TEME

Reference center: EARTH

Epoch: Aug. 30, 2025, 1:01 a.m. UTC

TLE line 0: 0 COSMOS 2251 DEB

TLE line 1: 1 34883U 93036ACW 25242.04256484 .00014198 00000-0 36924-2 0 9994

TLE line 2: 2 34883 74.2000 257.0974 0093633 108.2989 252.8385 14.47031328849238

Live tracking on map

Real-time ground track for satellite COSMOS 2251 DEB.

In-orbit conjunctions

A list of the most updated potential collisions computed for object COSMOS 2251 DEB.

Target Orbit TCA Probability of collision Miss distance Type
CZ-6A DEB LEO 2024-09-21 12:01:48 0.000106325 476.0 (m) DEBRIS
CZ-6A DEB SSO 2024-06-13 05:15:32 0.0001809242 60.0 (m) DEBRIS

Associated space launch

Military communications satellite. Destroyed in a collision with Iridium 33.

COSMOS 2251 DEB was lifted into orbit during the mission ‘Kosmos-3M | Strela-2M 51’, on board a Kosmos-3M space rocket.

The launch took place on June 16, 1993, 4:17 a.m. from 132/1 (132L).

For more information about the launch, click the button.

Launch to space Kosmos-3M | Strela-2M 51
Kosmos-3M | Strela-2M 51

Agency: N/A

Status: Launch Successful

Launch date: June 16, 1993, 4:17 a.m. UTC

Rocket: Kosmos-3M

Launch pad: 132/1 (132L)

Location: Plesetsk Cosmodrome, Russian Federation

...

Latest news about this satellite

There are no fresh news available about this satellite. Check back as we update our databases every day.


Newsletter sign-up

Weekly statistics, charts and insights to help you stay on top of the space industry.